Other Surface Observations
Issued by NWS

Home | Current Version | Previous Version | Text Only | Print | Product List | Glossary On
Versions: 1 2 3 4 5 6 7 8 9 10 11 12 13 14 15 16 17 18 19 20 21 22 23 24 25 26 27 28 29 30 31 32 33 34 35 36 37 38 39 40 41 42 43 44 45 46 47 48 49 50
000
SXUS52 KTAE 181618
OSOTAE
OSOTAE
North Florida/South Alabama/Southwest Georgia Weather Roundup
National Weather Service Tallahassee Florida
1100 AM EST WED JAN 18 2017

Note: "fair" indicates few or no clouds below 12,000 feet with no
significant weather and/or obstructions to visibility.

!FLZ017-115-028-034-025-181700
...North Florida...

CITY           SKY/WX    TMP DP  RH WIND       PRES   REMARKS
TALLAHASSEE    PTSUNNY   68  67  96 S5        30.20S
APALACHICOLA   CLOUDY    68  68 100 S5        30.21R
PERRY          CLOUDY    67  66  97 SW7       30.22S
CROSS CITY     MOSUNNY   73  63  68 W10       30.22S
JACKSONVILLE   PTSUNNY   71  63  75 W10       30.19R
$$

!FLZ112-006-005-002-011-181700
...Florida Panhandle...

CITY           SKY/WX    TMP DP  RH WIND       PRES   REMARKS
MARIANNA       CLOUDY    67  67 100 W6        30.20R
BONIFAY        CLOUDY    68  68 100 NW5       30.22R FOG
PANAMA CITY NW FOG       69  68  96 CALM      30.20R VSB 1/2
TYNDALL AFB    MOSUNNY   69  69 100 SE5       30.20F
TYND DRONE APT FAIR      70  70 100 SE7       30.20F
DE FUNIAK SPR  FOG       65  65 100 CALM      30.22S VSB 1/4
EGLIN AFB      PTSUNNY   68  68 100 CALM      30.20S FOG
DESTIN         CLOUDY    67  66  97 NE5       30.20S FOG
HURLBURT       NOT AVBL
CRESTVIEW      CLOUDY    67  66  97 NW3       30.22S
PENSACOLA      FOG       69  67  93 CALM      30.20S VSB 1/2
$$

!ALZ063-066-181700
...South Alabama...

CITY           SKY/WX    TMP DP  RH WIND       PRES   REMARKS
DOTHAN         CLOUDY    65  65 100 W9        30.25R FOG
OZARK CAIRNS   NOT AVBL
FT RUCKER HELI CLOUDY    69  63  81 NW6       30.20S
RUCKER HELI 3  NOT AVBL
RUCKER HELI 2  CLOUDY    68  64  87 NW7       30.21R
FLORALA APT    CLOUDY    68  64  87 CALM      30.23R
ANDALUSIA      NOT AVBL
TROY           CLOUDY    68  63  84 SW6       30.22S
EUFALA         CLOUDY    73  62  68 VRB7      30.20S
MOBILE         PTSUNNY   73  65  75 SE3       30.21R
$$

!GAZ120>161-181700
...Southwest and South Central Georgia...

CITY           SKY/WX    TMP DP  RH WIND       PRES   REMARKS
THOMASVILLE    CLOUDY    64  64 100 W5        30.22S
BAINBRIDGE     CLOUDY    64  63  94 W5        30.22R VSB 1
MOODY AFB      PTSUNNY   68  68 100 W5        30.19S
VALDOSTA       SUNNY     71  65  81 VRB5      30.20S
MOULTRIE       CLOUDY    66  64  94 W8        30.21S
BLAKELY        CLOUDY    68  64  88 W5        30.22S
ALBANY         CLOUDY    65  65 100 NW7       30.23R FOG
TIFTON         CLOUDY    65  65 100 NW12      30.21R
FITZGERALD     CLOUDY    67  66  94 NW7       30.23S
CORDELE        NOT AVBL
AMERICUS       PTSUNNY   68  59  73 W10G16    30.22F
HOMERVILLE     FAIR      72  66  83 W8        30.20S
$$

!GMZ750-755-770-775-181700
...Coastal and Buoy Obs...

STATION/POSITION TIME  TEMP    WIND        PRES    VSBY  WAVE
                       AIR SEA DIR/SP/G                  HT/PER
                 (UTC) (F)     (DEG/KT/KT) (MB)    (MI)  (FT/S)
KEATON BEACH     1600   66     180/  4/  4 1022.9S
CEDAR KEY        1600   66     150/  4/  5 1023.6R
C TOWER          1600   67     170/  5/  6 1023.4S
APALACHICOLA BUO 1550   73 72  180/ 10/ 12 1022.6R         2/ 4
PANAMA CITY BUOY 1550   76 75              1022.5R         3/ 6
MOBILE BUOY      NOT AVBL
ORANGE BCH AL BU 1550   65 64   50/  4/  4 1022.4R         2/ 7
$$




USA.gov is the U.S. government's official web portal to all federal, state and local government web resources and services.